GLO1203 SBJV-SBSP

Flight info

Callsign GLO1203
Flight time 0h 38m
Altitude 29000
Route DULIA UM400 KOXAG UM540 ANISE
Aircraft B738/M-SDFGIKLORWXY/LB1

Departure

Time 2026-04-16 13:46
Airport Lauro Carneiro de Loyola Airport (SBJV)

Arrival

Time 2026-04-16 14:24
Airport Congonhas–Deputado Freitas Nobre Airport (SBSP)
Time Latitude Longitude Altitude Speed Heading
2026-04-16 13:35 -26.22371 -48.80142 20 ft 0 kts 219°
2026-04-16 13:40 -26.22370 -48.80142 20 ft 1 kts 219°
2026-04-16 13:40 -26.22353 -48.80125 20 ft 4 kts 229°
2026-04-16 13:40 -26.22338 -48.80100 20 ft 4 kts 251°
2026-04-16 13:41 -26.22335 -48.80073 20 ft 4 kts 294°
2026-04-16 13:41 -26.22339 -48.80064 22 ft 0 kts 308°
2026-04-16 13:42 -26.22309 -48.80106 20 ft 15 kts 308°
2026-04-16 13:42 -26.22270 -48.80168 22 ft 9 kts 293°
2026-04-16 13:43 -26.22237 -48.80222 20 ft 8 kts 309°
2026-04-16 13:43 -26.22200 -48.80273 21 ft 8 kts 309°
2026-04-16 13:43 -26.22164 -48.80321 20 ft 8 kts 309°
2026-04-16 13:43 -26.22126 -48.80363 20 ft 8 kts 332°
2026-04-16 13:44 -26.22074 -48.80368 21 ft 7 kts 349°
2026-04-16 13:44 -26.22023 -48.80376 22 ft 7 kts
2026-04-16 13:44 -26.22006 -48.80339 23 ft 7 kts 129°
2026-04-16 13:44 -26.22029 -48.80313 23 ft 0 kts 128°
2026-04-16 13:45 -26.22064 -48.80265 23 ft 39 kts 129°
2026-04-16 13:45 -26.22442 -48.79745 24 ft 131 kts 129°
2026-04-16 13:46 -26.23164 -48.78741 210 ft 188 kts 128°
2026-04-16 13:46 -26.23945 -48.77628 1455 ft 180 kts 128°
2026-04-16 13:46 -26.24762 -48.76498 2222 ft 196 kts 128°
2026-04-16 13:46 -26.25645 -48.75286 2967 ft 206 kts 127°
2026-04-16 13:47 -26.26574 -48.74011 3503 ft 219 kts 127°
2026-04-16 13:47 -26.27593 -48.72602 3828 ft 243 kts 127°
2026-04-16 13:47 -26.28671 -48.71112 4439 ft 253 kts 127°
2026-04-16 13:47 -26.29825 -48.69521 4883 ft 272 kts 127°
2026-04-16 13:48 -26.31017 -48.67857 5607 ft 276 kts 124°
2026-04-16 13:48 -26.31730 -48.65894 5947 ft 273 kts 94°
2026-04-16 13:48 -26.31521 -48.63828 5987 ft 270 kts 66°
2026-04-16 13:48 -26.30508 -48.62055 6019 ft 274 kts 49°
2026-04-16 13:49 -26.29113 -48.60620 6014 ft 271 kts 37°
2026-04-16 13:49 -26.27623 -48.59361 6012 ft 272 kts 36°
2026-04-16 13:49 -26.26106 -48.58104 6007 ft 272 kts 37°
2026-04-16 13:49 -26.24576 -48.56848 6105 ft 273 kts 35°
2026-04-16 13:50 -26.23012 -48.55620 6747 ft 276 kts 33°
2026-04-16 13:50 -26.21399 -48.54447 7657 ft 281 kts 31°
2026-04-16 13:50 -26.19769 -48.53256 8681 ft 281 kts 34°
2026-04-16 13:50 -26.18139 -48.51997 9502 ft 288 kts 34°
2026-04-16 13:51 -26.16477 -48.50720 10336 ft 294 kts 34°
2026-04-16 13:51 -26.14729 -48.49371 10669 ft 319 kts 33°
2026-04-16 13:51 -26.12857 -48.47940 11190 ft 333 kts 33°
2026-04-16 13:51 -26.10928 -48.46466 11942 ft 338 kts 34°
2026-04-16 13:52 -26.09118 -48.44771 12729 ft 344 kts 46°
2026-04-16 13:52 -26.07528 -48.42765 13557 ft 347 kts 49°
2026-04-16 13:52 -26.05966 -48.40705 14329 ft 350 kts 49°
2026-04-16 13:52 -26.04386 -48.38621 15066 ft 355 kts 49°
2026-04-16 13:53 -26.02776 -48.36518 15795 ft 358 kts 49°
2026-04-16 13:53 -26.01140 -48.34405 16513 ft 361 kts 48°
2026-04-16 13:53 -25.99481 -48.32281 17173 ft 366 kts 48°
2026-04-16 13:53 -25.97799 -48.30137 17823 ft 370 kts 48°
2026-04-16 13:54 -25.96098 -48.27974 18484 ft 373 kts 47°
2026-04-16 13:54 -25.94383 -48.25794 19095 ft 378 kts 47°
2026-04-16 13:54 -25.92641 -48.23582 19678 ft 382 kts 47°
2026-04-16 13:54 -25.90878 -48.21345 20254 ft 387 kts 47°
2026-04-16 13:55 -25.89093 -48.19083 20803 ft 392 kts 47°
2026-04-16 13:55 -25.87288 -48.16796 21376 ft 395 kts 47°
2026-04-16 13:55 -25.85468 -48.14493 21898 ft 399 kts 47°
2026-04-16 13:55 -25.83618 -48.12157 22374 ft 404 kts 47°
2026-04-16 13:56 -25.81754 -48.09804 22867 ft 408 kts 47°
2026-04-16 13:56 -25.79892 -48.07454 23358 ft 412 kts 47°
2026-04-16 13:56 -25.77991 -48.05055 23834 ft 416 kts 47°
2026-04-16 13:56 -25.76076 -48.02639 24281 ft 419 kts 47°
2026-04-16 13:57 -25.74137 -48.00194 24719 ft 423 kts 47°
2026-04-16 13:57 -25.72186 -47.97735 25159 ft 426 kts 47°
2026-04-16 13:57 -25.70219 -47.95257 25580 ft 430 kts 47°
2026-04-16 13:58 -25.66249 -47.90259 26562 ft 431 kts 47°
2026-04-16 13:58 -25.64271 -47.87770 27162 ft 430 kts 47°
2026-04-16 13:58 -25.62295 -47.85286 27695 ft 429 kts 46°
2026-04-16 13:58 -25.60319 -47.82804 28196 ft 430 kts 46°
2026-04-16 13:59 -25.58338 -47.80317 28713 ft 430 kts 46°
2026-04-16 13:59 -25.56352 -47.77825 29094 ft 432 kts 46°
2026-04-16 13:59 -25.52358 -47.72817 29074 ft 431 kts 46°
2026-04-16 14:00 -25.48384 -47.67842 29093 ft 437 kts 46°
2026-04-16 14:00 -25.44302 -47.62731 29100 ft 455 kts 47°
2026-04-16 14:01 -25.40026 -47.57387 29092 ft 471 kts 47°
2026-04-16 14:01 -25.35538 -47.51947 29059 ft 484 kts 45°
2026-04-16 14:02 -25.30902 -47.46429 29047 ft 493 kts 46°
2026-04-16 14:02 -25.26205 -47.40832 29039 ft 497 kts 46°
2026-04-16 14:03 -25.21515 -47.35227 29033 ft 497 kts 46°
2026-04-16 14:03 -25.16817 -47.29612 29036 ft 497 kts 46°
2026-04-16 14:04 -25.12128 -47.24015 29045 ft 496 kts 46°
2026-04-16 14:04 -25.07438 -47.18426 29037 ft 496 kts 46°
2026-04-16 14:05 -25.02781 -47.12883 29037 ft 496 kts 46°
2026-04-16 14:05 -24.98096 -47.07314 29041 ft 496 kts 46°
2026-04-16 14:06 -24.93403 -47.01742 29043 ft 495 kts 46°
2026-04-16 14:06 -24.88716 -46.96183 29042 ft 492 kts 46°
2026-04-16 14:07 -24.86420 -46.93462 28974 ft 478 kts 46°
2026-04-16 14:07 -24.84181 -46.90809 28511 ft 469 kts 46°
2026-04-16 14:07 -24.81970 -46.88192 27990 ft 464 kts 46°
2026-04-16 14:07 -24.79783 -46.85605 27465 ft 459 kts 46°
2026-04-16 14:08 -24.77612 -46.83039 26946 ft 455 kts 46°
2026-04-16 14:08 -24.75464 -46.80501 26416 ft 451 kts 46°
2026-04-16 14:08 -24.73335 -46.77987 25883 ft 447 kts 46°
2026-04-16 14:08 -24.71226 -46.75498 25348 ft 443 kts 46°
2026-04-16 14:09 -24.69134 -46.73029 24819 ft 440 kts 46°
2026-04-16 14:09 -24.67058 -46.70578 24290 ft 436 kts 46°
2026-04-16 14:09 -24.64996 -46.68149 23776 ft 432 kts 46°
2026-04-16 14:09 -24.62948 -46.65748 23266 ft 428 kts 44°
2026-04-16 14:10 -24.60611 -46.63778 22733 ft 422 kts 26°
2026-04-16 14:10 -24.57894 -46.62668 22276 ft 414 kts 11°
2026-04-16 14:10 -24.55063 -46.62374 21786 ft 406 kts 357°
2026-04-16 14:10 -24.52244 -46.62431 21304 ft 403 kts 357°
2026-04-16 14:11 -24.49491 -46.62492 20808 ft 400 kts 358°
2026-04-16 14:11 -24.46723 -46.62533 20316 ft 397 kts 358°
2026-04-16 14:11 -24.43969 -46.62552 19822 ft 394 kts 359°
2026-04-16 14:11 -24.41246 -46.62561 19333 ft 391 kts 359°
2026-04-16 14:12 -24.38527 -46.62566 18842 ft 388 kts 359°
2026-04-16 14:12 -24.35835 -46.62567 18357 ft 385 kts 359°
2026-04-16 14:12 -24.33164 -46.62568 17880 ft 382 kts 359°
2026-04-16 14:12 -24.30515 -46.62568 17395 ft 379 kts 359°
2026-04-16 14:13 -24.28772 -46.62568 17077 ft 377 kts 359°
2026-04-16 14:13 -24.26159 -46.62569 16591 ft 375 kts 359°
2026-04-16 14:13 -24.23560 -46.62571 16128 ft 372 kts 359°
2026-04-16 14:13 -24.20975 -46.62573 15656 ft 370 kts 359°
2026-04-16 14:14 -24.18414 -46.62576 15184 ft 367 kts 359°
2026-04-16 14:14 -24.15858 -46.62580 14727 ft 364 kts 359°
2026-04-16 14:14 -24.13332 -46.62580 14251 ft 362 kts 359°
2026-04-16 14:14 -24.10821 -46.62574 13786 ft 358 kts 360°
2026-04-16 14:15 -24.08329 -46.62573 13329 ft 357 kts 359°
2026-04-16 14:15 -24.05858 -46.62579 12883 ft 354 kts 359°
2026-04-16 14:15 -24.03398 -46.62584 12401 ft 352 kts 359°
2026-04-16 14:15 -24.00965 -46.62586 11957 ft 349 kts 359°
2026-04-16 14:16 -23.98535 -46.62589 11509 ft 347 kts 359°
2026-04-16 14:16 -23.96129 -46.62590 11071 ft 344 kts 360°
2026-04-16 14:16 -23.93747 -46.62592 10715 ft 339 kts 360°
2026-04-16 14:16 -23.91437 -46.62593 10582 ft 327 kts 360°
2026-04-16 14:17 -23.89195 -46.62594 10431 ft 317 kts
2026-04-16 14:17 -23.87052 -46.62599 10307 ft 307 kts 358°
2026-04-16 14:17 -23.84978 -46.63070 10165 ft 298 kts 336°
2026-04-16 14:17 -23.83223 -46.64193 10040 ft 289 kts 327°
2026-04-16 14:18 -23.81545 -46.65398 9750 ft 287 kts 327°
2026-04-16 14:18 -23.79901 -46.66565 9471 ft 284 kts 328°
2026-04-16 14:18 -23.78240 -46.67730 9204 ft 283 kts 328°
2026-04-16 14:18 -23.76587 -46.68885 9137 ft 281 kts 328°
2026-04-16 14:19 -23.74940 -46.70031 9120 ft 280 kts 329°
2026-04-16 14:19 -23.73292 -46.71175 9128 ft 280 kts 329°
2026-04-16 14:19 -23.71643 -46.72321 9051 ft 283 kts 329°
2026-04-16 14:19 -23.69951 -46.73493 8588 ft 291 kts 329°
2026-04-16 14:20 -23.68234 -46.74684 8177 ft 293 kts 329°
2026-04-16 14:20 -23.66499 -46.75885 7743 ft 296 kts 329°
2026-04-16 14:20 -23.64752 -46.77095 7311 ft 298 kts 329°
2026-04-16 14:20 -23.62993 -46.78307 6868 ft 298 kts 330°
2026-04-16 14:21 -23.61135 -46.79211 6405 ft 289 kts 351°
2026-04-16 14:21 -23.59188 -46.79126 6064 ft 276 kts 17°
2026-04-16 14:21 -23.57516 -46.78196 5624 ft 269 kts 39°
2026-04-16 14:21 -23.56288 -46.76688 5201 ft 265 kts 59°
2026-04-16 14:22 -23.55615 -46.74877 4967 ft 247 kts 78°
2026-04-16 14:22 -23.55531 -46.73122 4809 ft 221 kts 95°
2026-04-16 14:22 -23.55842 -46.71570 4620 ft 199 kts 109°
2026-04-16 14:22 -23.56462 -46.70314 4471 ft 180 kts 126°
2026-04-16 14:23 -23.57282 -46.69415 4366 ft 157 kts 140°
2026-04-16 14:23 -23.58157 -46.68765 3940 ft 152 kts 146°
2026-04-16 14:23 -23.59060 -46.68142 3431 ft 155 kts 146°
2026-04-16 14:23 -23.59940 -46.67534 3155 ft 142 kts 146°
2026-04-16 14:24 -23.60784 -46.66949 2994 ft 146 kts 146°
2026-04-16 14:24 -23.61644 -46.66357 2752 ft 146 kts 146°
2026-04-16 14:24 -23.62489 -46.65772 2611 ft 138 kts 147°
2026-04-16 14:24 -23.63104 -46.65354 2609 ft 36 kts 162°
2026-04-16 14:25 -23.63187 -46.65399 2602 ft 15 kts 260°
2026-04-16 14:25 -23.63116 -46.65477 2601 ft 15 kts 328°
2026-04-16 14:25 -23.63024 -46.65519 2602 ft 14 kts 347°
2026-04-16 14:25 -23.62938 -46.65566 2602 ft 14 kts 327°
2026-04-16 14:26 -23.62868 -46.65615 2602 ft 10 kts 328°
2026-04-16 14:26 -23.62811 -46.65654 2602 ft 9 kts 327°
2026-04-16 14:26 -23.62756 -46.65692 2601 ft 9 kts 327°
2026-04-16 14:26 -23.62703 -46.65729 2601 ft 9 kts 328°
2026-04-16 14:27 -23.62651 -46.65764 2601 ft 9 kts 328°
2026-04-16 14:27 -23.62631 -46.65814 2600 ft 9 kts 240°
2026-04-16 14:27 -23.62650 -46.65853 2600 ft 3 kts 237°
2026-04-16 14:27 -23.62654 -46.65860 2600 ft 0 kts 236°